Location: Ar Ranvel
(48.3000°N, 4.8833°W)
Time: 09:51:35
(UTC+00:00)

FALCON 9 DEB - Pass Details

Date: 16 June 2021
Orbit: 422 x 432 km, 53.0° (Epoch: 27 July)

Event Time Altitude Azimuth Distance (km) Brightness Sun altitude
Rises 21:14:08 0° 208° (SSW) 2,389 6.7 -7.1°
Reaches altitude 10° 21:16:29 10° 194° (SSW) 1,524 5.6 -7.4°
Maximum altitude 21:19:18 24° 138° (SE) 937 4.2 -7.7°
Drops below altitude 10° 21:22:07 10° 83° (E) 1,526 5.6 -8.0°
Sets 21:24:28 0° 69° (ENE) 2,394 6.7 -8.2°
